Location: A�t �Alizem
(31.2076°N, 8.7872°W)
Time: 15:49:11
(UTC+00:00)

Cosmos 489 Rocket - Pass Details

Date: 27 November 2020
Orbit: 952 x 984 km, 74.0° (Epoch: 25 January)

Event Time Altitude Azimuth Distance (km) Brightness Sun altitude
Rises 18:27:51 0° 190° (S) 3,610 7.9 -11.8°
Reaches altitude 10° 18:30:21 10° 189° (S) 2,667 7.2 -12.3°
Maximum altitude 18:36:30 76° 104° (ESE) 980 4.4 -13.6°
Drops below altitude 10° 18:42:41 10° 20° (NNE) 2,686 6.5 -14.9°
Enters shadow 18:44:46 - 19° (NNE) 3,468 7.1 -15.3°
